Lid_Strength_Index
7 7 6 6 6 6 7 7 6 6 5 5 5 5 4 4 4 4 3 3 2 2
7 6 7 7 7 7 7 7 7 7 6 6 6 5 5 4 4 5 4 4 3 3
7 7 7 8 7 8 8 8 8 8 7 7 7 7 6 5 4 4 5 4 5 5
8 7 8 8 8 8 8 8 9 8 8 8 9 8 8 5 5 6 6 6 6 7
8 8 8 8 9 9 9 9 9 9 9 9 10 9 9 7 7 7 7 6 7 8
9 8 8 8 8 8 9 9 9 9 10 10 10 11 11 8 8 9 9 9 9 9
8 8 9 8 8 7 8 10 10 10 10 10 10 11 11 10 10 10 11 10 11 11
7 7 7 7 8 8 8 8 9 9 9 10 9 9 10 10 10 10 10 10 10 10
8 8 8 9 9 9 10 10 10 10 9 9 9 8 8 9 9 10 11 11 11 10
8 8 9 9 9 10 11 11 11 10 9 9 9 8 7 8 10 11 11 12 12 12
9 9 9 9 9 9 11 12 11 10 9 10 9 9 9 9 12 12 13 12 13 14
9 10 10 11 10 10 10 10 11 10 11 11 11 10 10 13 17 16 16 15 15 14
9 10 11 10 10 10 10 12 12 13 12 11 12 10 11 14 16 16 16 16 15 12
10 10 11 10 11 11 12 12 12 12 13 13 13 14 11 12 15 16 17 17 16 14